THOR ABLESTAR DEB, 543

Orbit data source: Space-Track

THOR ABLESTAR DEB, 543 is space debris in LEO originally from a launch on Thu, 29 Jun 1961 UTC launched from the Air Force Eastern Test Range (AFETR). Debris objects in space refer to the collection of defunct objects orbiting the Earth. Examples of debris include non-operational satellites, rocket bodies, and fragments generated from explosions, collisions, or faulty payload assembly.

Loading next visibility...
Identifier
543, 1961-015GC
Orbit
LEO
Country
Flag of USUS
Related business
Manufacturer
Unknown
Mission
Spacecraft
Bus & Motor
Unknown
Mass
Unknown
Launch date (UTC)
1961-06-29 (65 years ago)
Launch vehicle
Unknown
Launch site
Air Force Eastern Test Range (AFETR)
Object type
Payload
Rocket body
Debris
Shape & HBR
Unknown shape, 0.1 m
Radar Cross Section
Small (<0.1 m²)

Expand to show TLE details & history
Last TLE update: 8 hours ago

TLE from 8 hours ago
0 THOR ABLESTAR DEB
1 00543U 61015GC  26127.19272949  .00000143  00000-0  24250-3 0  9990
2 00543  67.0332  39.9849 0073399 234.7223 248.0922 13.69221829231085
Epoch: 2026-05-07T04:37Z
TLE epoch observation values (Epoch: 2026-05-07T04:37:31.827Z)
Latitude
51.42156°
Longitude
-106.34706°
Altitude
1,030.378 km
Speed
7.332 km/s
True Right ascension
12h 32m 18s
True Declination
51° 15' 36"
Sunlit
Object was in daylight at epoch
Visualization orbit readout
Latitude
Unknown
Longitude
Unknown
Altitude
Unknown
Speed
Unknown
Apparent Right ascension
Unknown
Apparent Declination
Unknown
Sunlit
N/A
Visualization observer readout
Local Sidereal Time
20:24:24
Azimuth
Unknown
Elevation
Unknown
Doppler factor
Unknown
Orbital elements
Apogee altitude
1,054.91 km
Perigee altitude
946.59 km
Semi-major axis
7,378.887 km
Eccentricity
0.00734
Inclination
67.0332°
RAAN
39.9849°
Arg. of periapsis
234.7223°
True anomaly
247.31453°
Mean anomaly
248.0922°
Eccentric anomaly
247.7031°
Mean motion
3.42418 °/min
Orbital period
105.13 mins
BSTAR
0.0002425
Loading maneuver chart data...
Computing Atmospheric mass density...

Documentation

Showing up to 5 results
|